TimeEDT,TemperatureF,Dew PointF,Humidity,Sea Level PressureIn,VisibilityMPH,Wind Direction,Wind SpeedMPH,Gust SpeedMPH,PrecipitationIn,Events,Conditions,WindDirDegrees,DateUTC
12:53 AM,78.1,75.0,90,29.91,6.0,SSW,3.5,-,N/A,,Clear,200,2013-09-02 04:53:00
1:53 AM,78.1,73.9,87,29.90,6.0,SSW,3.5,-,N/A,,Clear,210,2013-09-02 05:53:00
2:53 AM,77.0,73.9,90,29.88,5.0,South,3.5,-,N/A,,Clear,190,2013-09-02 06:53:00
3:53 AM,75.9,73.9,94,29.88,5.0,Calm,Calm,-,N/A,,Clear,0,2013-09-02 07:53:00
4:53 AM,75.9,73.0,91,29.87,4.0,SW,5.8,-,N/A,,Clear,220,2013-09-02 08:53:00
5:14 AM,75.2,73.4,94,29.89,5.0,SSW,4.6,-,N/A,,Partly Cloudy,200,2013-09-02 09:14:00
5:38 AM,75.2,73.4,94,29.89,5.0,SSW,4.6,-,N/A,,Mostly Cloudy,200,2013-09-02 09:38:00
5:53 AM,75.9,73.0,91,29.88,5.0,SSW,5.8,-,N/A,,Mostly Cloudy,210,2013-09-02 09:53:00
6:44 AM,75.2,73.4,94,29.90,5.0,SW,6.9,-,N/A,,Scattered Clouds,220,2013-09-02 10:44:00
6:53 AM,75.0,73.0,94,29.89,5.0,SW,5.8,-,N/A,,Partly Cloudy,220,2013-09-02 10:53:00
7:53 AM,75.0,73.0,94,29.91,4.0,SW,6.9,-,N/A,,Scattered Clouds,230,2013-09-02 11:53:00
8:53 AM,78.1,73.0,84,29.93,7.0,WSW,9.2,-,N/A,,Partly Cloudy,250,2013-09-02 12:53:00
9:53 AM,81.0,73.0,77,29.94,9.0,West,9.2,-,N/A,,Partly Cloudy,260,2013-09-02 13:53:00
10:53 AM,82.9,73.0,72,29.94,9.0,WSW,6.9,-,N/A,,Clear,250,2013-09-02 14:53:00
11:53 AM,86.0,72.0,63,29.94,10.0,West,10.4,-,N/A,,Clear,270,2013-09-02 15:53:00
12:53 PM,87.1,73.0,63,29.93,10.0,Variable,6.9,-,N/A,,Clear,0,2013-09-02 16:53:00
1:53 PM,89.1,73.0,59,29.90,9.0,SW,8.1,-,N/A,,Partly Cloudy,230,2013-09-02 17:53:00
2:53 PM,91.0,73.0,55,29.88,9.0,WSW,8.1,-,N/A,,Partly Cloudy,250,2013-09-02 18:53:00
3:53 PM,90.0,71.1,54,29.85,10.0,Calm,Calm,-,0.00,,Clear,0,2013-09-02 19:53:00
4:53 PM,89.1,73.0,59,29.84,9.0,SW,5.8,-,N/A,,Mostly Cloudy,230,2013-09-02 20:53:00
5:13 PM,78.8,71.6,78,29.86,1.8,SW,9.2,25.3,0.11,Rain,Heavy Rain,230,2013-09-02 21:13:00
5:24 PM,77.0,71.6,83,29.85,3.0,Variable,5.8,-,0.16,Rain,Light Rain,0,2013-09-02 21:24:00
5:53 PM,77.0,71.1,82,29.85,10.0,South,6.9,17.3,0.16,,Clear,170,2013-09-02 21:53:00
6:53 PM,75.0,69.1,82,29.86,10.0,SSW,6.9,-,N/A,,Clear,210,2013-09-02 22:53:00
7:53 PM,75.0,71.1,87,29.85,9.0,Calm,Calm,-,N/A,,Clear,0,2013-09-02 23:53:00
8:53 PM,73.9,71.1,91,29.87,8.0,Calm,Calm,-,N/A,,Clear,0,2013-09-03 00:53:00
9:53 PM,75.0,71.1,87,29.89,9.0,South,3.5,-,N/A,,Clear,190,2013-09-03 01:53:00
10:53 PM,73.9,70.0,87,29.91,10.0,South,4.6,-,N/A,,Clear,190,2013-09-03 02:53:00
11:53 PM,73.0,69.1,87,29.90,10.0,SSW,3.5,-,N/A,,Clear,200,2013-09-03 03:53:00